Theta_e
341 328 327 324 315 310 303 305 308 309 320 327 328 326 324 324 321 316 342 344 351 352 352 352 355 354 355 353 353 352 352 351 352 351 349 350 348 351 350 350 349 347 348 349 349 346 345 344 343
333 326 323 314 308 302 303 307 308 312 322 324 327 326 323 319 326 331 330 330 346 349 351 352 355 355 354 354 353 351 350 350 349 349 351 351 350 349 349 350 350 349 349 349 349 350 347 345 344
329 318 316 309 303 300 302 305 311 321 324 320 324 323 321 313 323 318 320 324 333 334 341 344 348 349 351 352 353 352 352 352 351 350 350 350 350 352 351 350 349 350 350 349 350 350 350 348 345
320 318 311 304 300 302 303 305 307 315 322 323 321 315 317 314 316 313 316 319 322 322 331 339 342 343 342 344 345 345 345 344 344 350 350 350 350 350 349 349 350 350 350 350 350 350 350 350 348
316 311 304 301 301 303 306 307 312 314 314 311 315 312 315 313 313 313 315 317 316 316 320 326 335 336 337 337 338 339 339 339 340 342 345 347 348 348 348 347 347 349 349 349 349 348 349 350 349
314 309 302 299 300 304 306 307 310 311 308 308 312 315 310 313 311 311 315 315 316 315 314 316 322 328 330 331 332 331 332 331 332 334 336 341 345 346 345 345 345 346 348 348 348 348 348 350 349
310 305 299 299 301 303 305 308 305 306 307 307 311 310 310 307 310 311 313 313 312 311 311 311 314 314 319 324 325 325 326 326 326 327 328 328 330 332 333 335 338 340 343 344 345 346 348 348 349
310 308 301 301 300 301 306 307 307 307 305 309 307 310 307 307 309 309 309 309 307 307 308 308 309 310 311 312 319 319 319 320 320 321 321 321 321 324 325 328 331 333 335 336 338 341 343 345 347
311 304 300 301 302 303 306 305 309 308 304 303 302 303 304 307 307 306 305 305 307 307 307 308 309 309 310 309 312 314 316 315 315 314 315 313 312 316 317 319 323 326 328 328 330 332 335 338 340
307 303 302 304 304 302 304 305 305 307 304 301 301 303 304 304 304 302 302 303 304 305 307 307 308 308 309 308 309 310 310 310 310 311 310 309 309 311 312 313 316 317 320 320 322 324 327 329 333
305 303 304 297 304 302 301 299 300 301 296 298 297 299 300 301 301 301 301 301 302 304 306 307 307 307 307 307 308 308 310 308 309 309 310 309 308 309 309 309 309 311 313 312 313 316 319 320 324
302 302 305 303 300 301 301 301 296 297 297 299 299 299 299 298 299 299 300 301 301 302 303 305 306 307 307 307 307 307 307 308 307 308 309 308 307 307 308 307 309 309 310 310 310 311 313 315 318
302 301 297 298 298 298 299 297 296 296 297 298 297 296 295 295 295 296 297 297 298 299 301 302 304 305 305 305 307 307 306 307 307 307 307 309 307 307 307 307 308 308 309 308 308 308 309 310 314
298 296 295 295 294 295 293 293 295 295 295 292 291 291 292 292 293 294 295 295 295 297 298 300 301 304 304 304 305 306 306 307 307 307 307 306 307 306 307 306 307 306 308 309 308 307 307 308 309
299 298 296 293 293 292 294 289 289 292 290 288 289 290 290 291 292 292 294 294 295 296 297 298 300 302 302 303 305 306 307 307 306 306 306 306 307 306 306 306 306 307 308 309 308 307 308 307 307
292 292 290 291 293 293 293 282 286 289 288 286 287 288 288 289 291 292 294 295 296 296 296 297 298 298 299 301 303 305 306 306 306 305 306 306 306 307 306 306 306 307 307 308 307 307 305 305 305
288 286 287 289 292 291 291 282 285 288 287 285 286 286 287 288 290 292 294 294 295 296 296 296 297 297 298 298 300 303 304 305 305 304 304 305 306 306 306 305 306 306 306 306 306 305 306 304 304
285 285 286 286 289 287 284 281 284 286 285 284 285 286 286 287 288 291 293 294 294 296 296 296 297 297 298 298 299 301 302 303 304 304 304 304 305 305 305 305 305 305 305 305 306 305 305 305 304
287 285 286 287 290 286 282 281 283 285 285 284 285 285 286 286 289 291 292 293 293 294 295 295 295 296 297 297 295 296 298 301 301 302 303 303 304 304 304 304 304 304 304 304 305 304 303 303 305
287 286 285 287 289 288 282 280 283 284 284 285 284 284 285 286 288 289 291 291 292 292 293 294 295 296 297 297 296 296 297 298 299 301 301 302 302 302 302 303 303 303 302 302 302 302 301 303 305
285 285 284 283 286 286 281 278 280 284 285 285 285 286 286 286 287 289 290 291 292 292 292 293 294 295 296 297 297 297 297 297 297 298 299 300 300 301 302 302 302 301 301 300 300 301 301 299 302
282 288 285 283 282 279 284 278 279 281 281 282 283 284 286 287 289 289 290 291 291 292 294 293 294 294 296 298 295 294 293 292 295 296 297 298 299 299 300 301 300 300 300 299 300 301 302 302 300
284 287 284 284 282 281 280 278 276 280 278 280 282 284 286 287 288 289 290 291 293 294 293 294 294 295 295 297 296 294 293 294 295 295 295 296 297 298 298 299 299 299 299 299 300 301 302 302 301
288 284 284 282 281 278 277 277 273 275 277 280 282 284 286 287 288 290 291 292 293 294 294 294 294 294 295 296 296 295 294 293 293 294 294 295 296 297 297 298 298 299 299 299 300 300 301 301 301
284 280 278 278 277 276 278 277 275 278 280 281 281 284 286 288 288 289 290 290 291 292 293 294 294 293 294 294 295 295 295 294 294 293 293 294 294 296 296 297 297 297 298 299 299 299 300 301 300
281 279 276 272 273 274 278 275 278 280 282 284 284 285 287 287 288 289 290 290 291 292 292 293 293 292 294 294 294 295 295 294 294 294 294 294 294 295 296 296 297 296 297 298 298 298 299 299 300
280 277 281 276 274 271 273 276 280 280 281 282 283 284 285 287 288 288 289 290 291 291 292 292 292 293 294 294 294 294 295 294 294 295 295 295 295 295 296 296 295 296 296 297 297 297 297 298 299
281 281 274 275 267 267 271 272 274 276 278 280 281 283 285 287 287 288 289 289 290 291 291 292 292 292 293 294 294 294 294 294 295 295 294 294 295 296 296 296 296 295 295 296 296 296 297 297 298
278 276 276 275 274 269 267 271 277 277 279 279 282 283 285 286 287 287 288 289 290 291 291 291 292 292 293 294 294 294 294 294 294 294 294 295 295 295 295 295 295 294 294 294 295 295 296 296 297
278 276 275 271 269 270 269 270 279 281 281 282 282 284 286 286 287 287 288 288 289 289 291 291 292 292 293 293 293 293 294 294 294 294 294 295 294 296 295 295 294 294 294 294 293 294 295 296 296
Wind_Speed
3 1 1 3 3 5 2 1 1 2 3 5 5 11 13 11 6 6 7 18 14 12 7 7 9 10 10 9 8 6 6 5 5 4 4 4 5 5 3 3 2 3 3 2 4 3 3 3 4
3 1 3 2 5 3 1 3 3 1 2 1 4 4 8 7 7 4 9 19 14 15 15 15 17 15 14 12 11 9 7 6 5 5 6 5 5 6 4 3 5 6 6 6 5 5 5 5 5
2 4 3 5 3 3 2 3 3 3 2 2 4 9 5 8 8 7 12 11 14 17 15 17 21 22 22 22 20 15 15 14 11 9 8 8 10 10 8 7 7 6 8 9 8 8 8 7 7
2 3 4 6 6 1 1 3 4 2 3 8 7 10 8 10 4 10 12 12 16 16 15 17 22 21 22 22 19 18 17 17 18 18 12 11 10 9 9 9 10 11 10 9 11 11 10 10 9
4 3 5 5 4 2 3 3 2 2 2 7 3 6 6 9 11 12 11 13 15 15 12 15 23 22 22 22 21 20 18 18 18 16 15 15 13 13 13 8 6 9 11 12 11 12 12 12 12
4 2 5 3 2 2 2 6 3 5 7 5 6 5 6 8 12 12 10 12 11 12 14 13 22 22 22 21 21 20 19 21 20 19 19 16 16 17 16 16 16 15 14 11 10 13 14 14 15
6 4 3 2 3 4 7 8 5 4 7 8 4 5 5 10 9 10 9 8 10 12 11 11 9 14 19 23 21 21 20 20 20 19 19 18 17 17 17 18 17 15 15 16 14 12 12 15 17
4 5 4 5 3 3 8 3 1 8 5 3 8 5 5 7 9 9 9 10 12 12 11 11 10 8 11 9 18 17 18 19 19 19 18 18 17 17 18 18 18 17 17 16 16 17 15 15 14
3 6 4 3 4 4 6 5 5 6 9 9 10 12 8 9 9 11 12 14 12 11 12 13 12 11 10 10 10 12 15 15 14 14 17 12 9 11 12 14 17 18 18 18 18 18 17 16 13
6 5 5 5 1 2 3 9 5 4 10 12 14 15 14 14 13 15 14 13 14 14 13 12 12 11 10 8 8 7 8 8 8 9 10 8 9 9 10 12 16 16 17 16 17 18 16 14 9
5 5 6 7 6 7 6 21 12 5 14 12 9 12 13 14 13 12 11 9 9 9 11 12 11 10 10 8 6 4 3 4 4 7 7 7 6 6 6 6 7 8 12 8 10 10 8 12 9
7 8 5 8 11 6 6 9 18 19 8 10 12 9 11 13 12 11 11 11 11 11 12 13 12 10 8 5 4 5 4 3 4 4 5 4 4 5 5 4 5 6 6 9 8 6 9 10 11
8 5 9 6 11 16 21 19 15 18 13 13 14 17 17 18 19 18 17 17 17 17 16 14 12 10 10 10 6 5 5 4 4 3 4 3 4 5 4 4 4 4 4 6 8 8 9 9 10
5 9 6 10 10 13 19 14 6 13 13 21 21 20 20 19 19 19 20 18 18 16 17 15 16 14 13 11 11 8 6 7 7 6 4 4 3 4 5 5 4 5 4 4 5 7 7 8 9
3 3 4 14 13 4 4 21 13 11 16 21 20 18 18 19 20 19 18 19 18 16 16 17 16 15 14 13 9 6 6 6 6 6 7 8 6 6 6 5 5 4 4 5 5 6 6 7 9
5 5 4 6 11 6 3 6 15 13 18 19 19 18 19 22 21 21 20 19 19 19 18 18 16 18 17 15 11 8 6 6 6 6 7 10 8 8 8 6 7 5 5 4 4 5 6 6 7
7 1 2 1 10 1 8 9 8 11 16 17 18 18 19 21 23 21 20 19 19 18 18 18 18 18 18 17 14 12 12 7 6 5 6 9 9 9 8 8 8 8 6 5 5 6 5 6 7
4 4 3 3 5 12 17 16 9 11 16 16 17 18 19 20 21 18 20 21 20 19 19 20 17 19 18 12 12 10 10 9 6 7 7 9 7 11 10 8 10 8 8 8 7 8 7 7 7
3 2 3 1 4 7 11 11 9 10 16 18 20 20 20 21 21 20 20 21 20 19 19 19 18 19 14 11 11 11 11 11 10 8 11 11 9 10 9 8 9 8 8 9 9 8 10 9 6
1 1 3 3 3 4 10 10 8 11 12 14 18 20 20 22 22 22 22 20 19 19 19 19 19 18 15 10 10 9 9 10 10 10 12 13 12 11 9 10 9 9 8 10 10 9 7 8 6
3 2 5 9 3 4 13 6 1 5 11 17 16 16 19 20 23 24 24 23 20 21 20 19 19 19 17 17 11 10 9 8 8 10 10 12 13 13 10 11 10 9 8 9 11 10 11 10 9
5 2 10 10 4 2 3 2 4 9 13 19 20 21 22 24 24 23 23 21 22 20 18 20 19 20 17 18 13 17 12 13 11 11 10 11 12 14 13 12 12 11 9 12 11 10 10 9 10
7 16 6 1 3 3 3 3 5 5 18 22 22 21 22 22 21 23 22 21 22 20 19 18 19 18 18 17 16 14 16 12 11 11 15 15 12 13 15 13 14 13 9 12 13 12 11 9 10
14 5 2 1 1 2 4 4 5 8 16 20 19 22 23 24 25 24 24 23 21 20 20 20 22 21 20 18 18 17 18 18 14 15 13 11 10 10 13 14 13 13 12 12 12 13 13 11 11
12 8 5 4 4 4 4 3 2 8 15 16 18 23 24 22 22 23 25 25 26 25 24 21 22 24 22 22 21 20 19 19 19 18 13 15 12 10 12 14 13 11 13 13 12 12 12 12 11
5 6 4 6 7 9 9 2 3 8 15 23 22 22 23 23 22 23 24 24 25 27 27 25 24 24 23 22 22 19 20 14 14 16 15 13 13 13 15 14 15 16 16 14 13 10 11 12 11
6 7 2 5 2 3 6 1 4 14 26 25 27 28 28 28 27 28 27 25 25 25 26 25 26 25 24 23 20 20 19 19 18 19 17 13 15 13 16 17 16 16 16 15 13 11 13 13 13
9 3 3 5 7 8 3 5 6 19 25 25 28 30 29 28 28 28 27 27 26 25 24 25 24 25 24 23 20 18 20 19 18 18 19 18 16 16 16 16 16 16 16 16 15 12 14 13 12
5 4 5 3 1 3 7 6 2 16 21 22 26 28 27 28 28 27 27 27 26 25 24 24 24 24 23 21 22 20 19 20 19 16 17 16 17 15 16 16 16 15 15 16 15 15 14 14 14
5 3 3 3 4 2 0 8 3 21 20 19 27 27 28 28 29 28 27 27 26 26 25 24 24 24 22 21 20 19 19 18 18 17 17 16 16 15 14 15 12 15 14 14 15 15 14 13 14
Wind_Direction
351 29 92 44 68 66 61 9 320 26 74 38 59 80 86 48 24 76 345 14 39 46 59 41 25 27 31 38 22 19 4 8 2 359 349 346 339 356 297 296 279 239 242 231 188 185 204 198 192
348 102 53 86 81 78 341 316 31 330 135 168 68 66 44 67 22 32 10 350 28 50 52 50 48 43 39 33 26 19 8 4 357 356 339 330 324 327 329 301 282 274 257 246 238 225 218 227 223
116 37 74 77 88 107 161 2 13 55 25 319 103 52 39 349 7 9 355 0 38 40 40 51 56 53 46 45 45 44 39 35 24 3 352 345 338 332 320 309 298 280 267 261 243 237 239 233 235
56 24 57 67 85 53 300 338 343 11 54 34 106 77 90 38 14 17 359 27 46 35 34 43 49 51 50 46 41 40 49 46 34 26 37 31 15 356 337 325 314 307 299 276 272 254 240 242 237
39 54 61 78 63 71 21 344 339 63 50 22 7 104 69 49 46 33 27 30 45 41 34 44 47 47 46 46 46 39 43 46 43 42 33 30 35 32 22 17 353 346 318 302 283 265 262 256 247
54 81 68 84 67 16 23 7 11 50 30 28 64 72 68 51 43 33 22 36 32 46 38 39 43 41 42 44 47 38 36 38 40 35 36 33 34 30 25 21 20 14 8 352 320 301 282 266 257
96 70 95 87 19 36 357 342 41 30 30 25 352 73 91 53 45 45 39 40 42 48 45 47 41 41 36 44 36 39 30 33 35 34 32 29 32 32 24 20 19 18 10 2 355 353 336 285 268
87 86 53 28 14 59 347 45 175 44 66 18 346 70 80 51 41 41 42 41 43 39 39 36 34 31 45 35 32 35 40 31 30 30 31 26 26 26 22 16 16 12 17 9 2 353 344 341 317
115 66 65 31 25 334 353 36 36 70 72 49 35 52 52 55 52 54 46 41 37 33 29 25 26 23 22 32 21 27 28 30 29 28 24 22 20 18 18 15 16 11 11 7 3 358 353 346 336
66 79 61 350 358 320 27 46 1 53 55 58 54 48 49 47 43 43 35 27 23 16 11 13 11 11 13 16 14 21 21 20 19 20 21 18 20 17 14 12 12 10 7 1 359 356 354 350 340
34 94 150 37 357 14 40 62 25 20 46 28 68 54 43 47 42 39 32 25 10 0 5 2 0 358 1 356 354 2 3 15 15 18 15 12 11 13 17 10 7 2 5 0 353 351 353 342 338
101 41 74 47 35 46 44 88 66 61 81 65 65 69 55 47 38 25 14 8 4 1 359 352 353 349 346 336 339 325 335 351 4 358 8 9 6 4 7 15 9 7 1 354 352 344 338 334 330
74 114 67 105 96 86 72 70 77 52 49 58 57 49 39 30 18 14 10 8 2 356 345 343 339 342 340 331 322 313 322 325 330 330 345 356 351 341 340 352 354 359 354 356 345 341 338 330 326
115 93 78 36 55 60 78 41 76 25 39 44 37 33 30 27 18 16 10 2 357 349 345 337 337 337 338 335 328 314 317 322 326 321 318 293 279 297 314 325 334 335 344 341 335 336 333 326 321
114 85 64 20 355 71 169 38 40 23 48 48 38 32 26 20 16 10 1 355 354 350 345 343 335 327 324 319 313 299 282 285 283 284 292 294 295 296 295 295 301 308 316 316 320 322 322 323 322
45 61 32 19 0 5 118 65 34 38 55 45 35 27 23 19 12 6 359 351 346 345 344 335 336 334 329 315 309 297 276 272 273 277 279 280 279 285 282 281 279 284 277 271 283 290 306 312 317
14 317 10 61 26 182 65 126 63 48 53 46 32 22 16 8 6 359 351 345 338 337 334 335 332 333 329 324 313 303 291 268 266 272 276 280 274 279 274 274 281 282 278 277 275 282 284 301 310
317 338 308 285 25 68 94 114 91 61 53 42 25 14 7 357 351 340 338 338 334 332 332 332 331 326 329 326 322 313 296 279 280 278 280 286 282 285 290 288 289 287 276 278 280 285 284 280 288
255 238 296 26 34 75 98 107 74 54 41 27 18 8 358 351 342 336 333 332 330 327 325 325 322 321 323 322 327 326 314 302 297 290 283 276 273 275 272 271 274 273 270 272 274 283 284 281 271
257 237 351 313 46 76 127 106 85 52 41 23 9 358 346 343 339 339 333 331 328 320 320 318 314 313 314 313 308 299 296 291 288 291 288 280 265 254 246 246 248 252 260 264 264 260 266 262 257
8 54 345 298 329 58 128 165 339 5 14 13 9 352 352 344 340 339 337 335 329 325 321 316 309 307 305 304 297 301 293 278 276 276 275 276 285 281 265 267 266 273 272 272 272 270 260 270 261
330 311 315 293 219 211 189 300 40 352 359 0 358 355 347 348 338 333 328 324 323 316 312 310 306 303 303 303 294 298 292 290 286 283 275 273 273 277 274 263 263 262 268 267 265 263 253 253 259
273 314 300 262 187 136 158 276 15 338 358 352 353 348 339 332 330 327 326 322 320 320 316 312 307 302 298 292 295 291 292 287 289 286 288 283 281 276 275 269 267 262 257 257 254 255 241 237 245
303 332 78 78 164 165 122 2 65 20 345 338 344 346 339 335 333 329 325 322 320 318 315 313 310 306 304 297 295 288 282 285 286 283 283 280 277 274 268 267 265 266 261 255 248 251 244 239 237
14 351 337 329 345 1 13 345 111 18 352 338 335 342 340 332 328 324 322 322 320 318 315 310 308 303 301 300 297 291 284 279 276 277 277 278 277 270 262 259 260 261 258 255 251 251 246 243 236
21 27 49 312 312 323 344 324 76 22 335 354 342 334 332 332 330 324 320 317 315 314 312 313 309 305 305 300 295 291 285 279 276 272 271 267 268 268 266 258 252 259 259 253 248 250 248 246 240
353 35 351 281 13 301 325 12 118 346 358 346 338 336 337 333 328 324 323 320 316 315 316 315 313 311 308 305 300 297 292 283 282 275 271 267 264 263 264 260 256 256 254 252 248 247 248 245 241
72 337 3 26 347 313 0 292 335 353 350 340 338 332 329 327 326 324 323 322 319 319 319 316 314 309 309 305 304 297 294 289 288 284 276 272 266 267 265 259 257 257 253 252 252 247 243 242 240
5 32 43 117 45 292 316 320 162 344 345 328 327 325 325 324 324 324 321 321 321 321 322 318 314 313 308 306 302 298 294 291 286 284 282 279 275 274 269 262 257 257 247 252 251 246 245 238 241
68 85 72 96 305 62 245 277 273 343 329 326 324 324 324 324 323 321 323 324 325 325 321 320 318 314 311 306 300 294 290 287 284 280 278 273 272 264 259 258 252 247 249 246 243 246 240 233 241